Regional Weather Roundup
Issued by NWS Albany, NY

Home | Current Version | Previous Version | Text Only | Print | Product List | Glossary On
Versions: 1 2 3 4 5 6 7 8 9 10 11 12 13 14 15 16 17 18 19 20 21 22 23 24 25 26 27
000
ASUS41 KALY 241310
RWRALY

NEW YORK STATE HOURLY WEATHER ROUNDUP
NATIONAL WEATHER SERVICE ALBANY NY
900 AM EDT FRI OCT 24 2014

NOTE: "FAIR" INDICATES FEW OR NO CLOUDS BELOW 12,000 FEET WITH NO
SIGNIFICANT WEATHER AND/OR NO OBSTRUCTIONS TO VISIBILITY.

NYZ032-033-038>043-046>054-057>066-NYZ062>081-241400-
EAST


CITY           SKY/WX    TMP DP  RH WIND       PRES   REMARKS
ALBANY         DRIZZLE   46  43  89 N7        29.85S FOG
GLENS FALLS    LGT RAIN  44  42  93 E5        29.85S FOG
POUGHKEEPSIE   CLOUDY    50  45  83 N3        29.82S
NEWBURGH       CLOUDY    48  46  93 VRB5      29.83S
MONTGOMERY     CLOUDY    50  42  74 NW8       29.82R
WHITE PLAINS   CLOUDY    49  44  83 NW10      29.80S
ISLIP          LGT RAIN  50  46  86 NW12      29.77S
NEW YORK CITY  CLOUDY    53  44  71 NW14      29.82R
CENTRAL PARK   PTSUNNY   53  43  68 NW7       29.85R
$$

NYZ005>009-017-018-044>046-055-056-241400-
CENTRAL


CITY           SKY/WX    TMP DP  RH WIND       PRES   REMARKS
FULTON         SUNNY     48  43  82 W5        29.95R
SYRACUSE       PTSUNNY   50  45  83 W7        29.95R
ROME           CLOUDY    47  43  86 W7        29.94S
ELMIRA         MOSUNNY   49  45  86 SW8       29.96S
BINGHAMTON     CLOUDY    46  42  86 NW14G21   29.91R
MONTICELLO     CLOUDY    45  41  87 NW15G22   29.85S
$$

NYZ026>034-041>043-241400-
NORTH


CITY           SKY/WX    TMP DP  RH WIND       PRES   REMARKS
WATERTOWN      MOSUNNY   45  40  82 CALM      29.95R
FORT DRUM      NOT AVBL
MASSENA        CLOUDY    47  44  90 CALM      29.93F
SARANAC LAKE   CLOUDY    41  39  93 N5        29.87R
PLATTSBURGH    CLOUDY    44  42  93 NW8       29.88S
$$

NYZ001>004-010>016-019>021-241400-
WEST


CITY           SKY/WX    TMP DP  RH WIND       PRES   REMARKS
NIAGARA FALLS  MOSUNNY   45  41  86 N5        30.03F
BUFFALO        MOSUNNY   43  40  89 S3        30.04S
DUNKIRK        SUNNY     42  40  92 SW6       30.06S
JAMESTOWN      SUNNY     43  39  87 W3        30.04F
WELLSVILLE     SUNNY     42  38  85 NW13      30.02R
ROCHESTER      MOSUNNY   46  42  86 W10       30.01S
PENN YAN       SUNNY     49  40  71 SW8       29.97S
$$

             KEY
       WCI = WIND CHILL INDEX
       VSB = VISIBILITY
       HX  = HEAT INDEX
$$



USA.gov is the U.S. government's official web portal to all federal, state and local government web resources and services.